[[{"header":{"parameterUnit":"m.s-1","parameterCategory":2,"la1":30.2991,"la2":30.254,"lo1":-89.0895,"lo2":-89.0444,"dy":0.0017,"dx":0.0017,"nx":28,"ny":28,"refTime":"2024-04-30T21:00:00:Z","depth":"0","parameterNumber":2,"parameterNumberName":"U-component_of_CURRENTS"},"data":[0,0,0,0,0,0,0,0,0,0,0,0,0,0,0,0,0,0,0,0,0,0,0,0,0,0,0,0,0,0,0,0,0,0,0,0,0,0,0,0,0,0,0,0,0,0,0,0,0,0,0,0,0,0,0,0,0,0,-0.38,-0.3801,0,-0.3805,-0.3804,-0.3804,-0.3653,-0.3649,-0.3646,-0.3643,-0.3539,-0.354,-0.354,0,0,0,0,0,0,0,0,0,0,0,0,0,-0.3473,-0.348,-0.38,-0.3801,-0.3801,-0.3805,-0.3804,-0.3804,-0.3654,-0.3649,-0.3645,-0.3641,-0.3539,-0.354,-0.354,0,0,0,0,0,0,0,0,0,0,0,0,0,-0.3556,-0.3483,-0.38,-0.373,-0.3725,-0.3805,-0.3804,-0.3804,-0.3655,-0.3649,-0.3644,-0.3639,-0.3539,-0.354,-0.354,-0.3652,0,0,-0.3543,-0.3543,0,0,0,0,0,0,0,0,-0.3551,-0.3567,-0.374,-0.3735,-0.3729,-0.3727,-0.3651,-0.375,-0.3656,-0.3676,-0.3642,-0.3636,-0.36,-0.3595,-0.3602,-0.3647,-0.3643,-0.3543,-0.3543,-0.3544,-0.3544,0,0,0,0,0,0,0,-0.3546,-0.3565,-0.3796,-0.3741,-0.3735,-0.3635,-0.3642,-0.3668,-0.3661,-0.3673,-0.3664,-0.3675,-0.3594,-0.3602,-0.3598,-0.3641,-0.3543,-0.3544,-0.3544,-0.3545,-0.3668,-0.3671,0,0,0,0,0,0,-0.3574,-0.3563,-0.3796,-0.3797,-0.3631,-0.3646,-0.3654,-0.3729,-0.3663,-0.365,-0.3679,-0.3668,-0.3603,-0.3597,-0.3594,-0.3616,-0.3544,-0.3545,-0.3545,-0.3665,-0.3669,-0.3672,0,0,0,0,0,0,-0.3568,-0.3598,-0.3796,-0.3678,-0.3697,-0.366,-0.3744,-0.3732,-0.3749,-0.367,-0.3652,-0.3708,-0.3598,-0.3593,-0.3627,-0.3614,-0.3545,-0.3546,-0.3662,-0.3666,-0.367,-0.3728,0,0,0,0,0,0,-0.356,-0.3597,-0.3687,-0.3684,-0.3705,-0.3868,-0.3749,-0.3736,-0.3765,-0.375,-0.3691,-0.3674,-0.3594,-0.3627,-0.3628,-0.3614,-0.3546,-0.3658,-0.3664,-0.3669,-0.3723,-0.3734,-0.3743,0,0,0,0,0,-0.3549,-0.3726,-0.3694,-0.3722,-0.3825,-0.3872,-0.3875,-0.3821,-0.3773,-0.381,-0.3758,-0.3676,-0.3658,-0.3632,-0.3632,-0.3617,-0.3656,-0.3662,-0.3668,-0.3718,-0.3732,-0.3743,0,0,0,0,0,0,-0.3695,-0.3728,-0.3691,-0.3886,-0.3874,-0.3848,-0.3909,-0.3864,-0.386,-0.3844,-0.3745,-0.373,-0.3741,-0.3714,-0.3687,-0.3674,-0.3633,-0.364,-0.367,-0.3683,-0.3693,-0.3662,-0.3547,0,0,0,0,0,-0.3759,-0.3851,-0.3853,-0.3997,-0.4006,-0.3959,-0.3982,-0.3938,-0.3923,-0.3915,-0.3856,-0.3808,-0.3777,-0.3758,-0.3739,-0.3773,-0.3679,-0.3758,-0.3768,-0.3777,-0.3757,-0.3653,-0.3649,-0.3692,-0.3692,-0.3692,0,0,-0.385,-0.3883,-0.3938,-0.4023,-0.4011,-0.4004,-0.396,-0.4015,-0.3976,-0.3913,-0.3881,-0.3865,-0.3804,-0.3797,-0.3798,-0.3763,-0.3715,-0.3785,-0.3791,-0.3766,-0.3658,-0.3653,-0.3648,-0.3697,-0.3696,-0.3695,0,0,-0.3986,-0.4109,-0.4156,-0.4155,-0.4152,-0.4121,-0.4143,-0.4119,-0.4083,-0.4083,-0.4,-0.3994,-0.3958,-0.3888,-0.385,-0.3934,-0.3787,-0.3927,-0.3931,-0.3832,-0.3825,-0.3818,-0.3671,-0.3651,-0.3914,-0.3914,-0.3914,0,-0.4065,-0.4127,-0.4185,-0.4191,-0.417,-0.4164,-0.4144,-0.4145,-0.4119,-0.4078,-0.4075,-0.3998,-0.398,-0.3912,-0.3929,-0.3946,-0.3849,-0.3878,-0.3837,-0.3828,-0.382,-0.3671,-0.3648,-0.3917,-0.3917,-0.3917,-0.3916,0,-0.414,-0.4189,-0.4239,-0.4196,-0.4219,-0.4234,-0.4201,-0.4202,-0.4163,-0.4112,-0.4078,-0.407,-0.3992,-0.4007,-0.399,-0.3927,-0.3862,-0.3868,-0.3787,-0.3817,-0.3661,-0.3635,-0.3923,-0.3921,-0.392,-0.3919,0,0,-0.4189,-0.4261,-0.4239,-0.4181,-0.42,-0.4191,-0.4191,-0.4129,-0.4066,-0.4082,-0.3985,-0.4003,-0.3997,-0.3961,-0.3952,-0.3899,-0.3783,-0.3865,-0.3858,-0.3686,-0.3505,-0.34,-0.3361,-0.3767,-0.3764,-0.3762,-0.3409,0,-0.4142,-0.4129,-0.419,-0.4123,-0.4079,-0.4102,-0.4078,-0.4049,-0.4021,-0.3957,-0.3964,-0.3904,-0.3975,-0.3938,-0.3908,-0.3821,-0.3722,-0.3875,-0.3531,-0.3519,-0.3395,-0.3331,-0.3264,-0.2939,-0.3383,-0.3378,-0.3375,0,-0.404,-0.405,-0.3997,-0.3978,-0.3966,-0.3949,-0.3855,-0.385,-0.3821,-0.3806,-0.3792,-0.3793,-0.3751,-0.3808,-0.364,-0.3726,-0.3613,-0.355,-0.3533,-0.3391,-0.3367,-0.299,-0.2874,-0.2881,-0.3334,-0.3337,-0.334,0,-0.3825,-0.3849,-0.3788,-0.3783,-0.3816,-0.378,-0.3784,-0.3766,-0.3737,-0.3699,-0.3658,-0.3634,-0.358,-0.3495,-0.3425,-0.3496,-0.3203,-0.3266,-0.3043,-0.3032,-0.2883,-0.2865,-0.2702,-0.3086,-0.3087,-0.3088,-0.3089,0,-0.3649,-0.3593,-0.368,-0.3631,-0.3544,-0.3627,-0.3539,-0.3542,-0.3554,-0.3487,-0.3564,-0.3478,-0.3501,-0.3375,-0.3322,-0.3084,-0.3095,-0.2995,-0.2926,-0.2904,-0.2893,-0.2821,-0.2881,-0.3075,-0.3078,-0.308,-0.3083,0,-0.3398,-0.347,-0.3389,-0.3426,-0.3431,-0.3354,-0.3406,-0.3359,-0.3395,-0.3306,-0.3292,-0.3299,-0.3142,-0.3116,-0.2933,-0.2894,-0.2656,-0.2616,-0.2575,-0.251,-0.2351,-0.2418,-0.2129,-0.2064,-0.2295,-0.229,-0.2286,0,-0.3279,-0.3203,-0.3198,-0.3169,-0.319,-0.315,-0.3137,-0.3226,-0.3202,-0.3164,-0.3094,-0.2974,-0.285,-0.2575,-0.2493,-0.23,-0.238,-0.2113,-0.2265,-0.228,-0.2304,-0.2374,-0.2348,-0.207,-0.2065,-0.206,-0.2057,0,-0.3028,-0.3019,-0.2982,-0.2911,-0.2883,-0.2871,-0.287,-0.2838,-0.2919,-0.2863,-0.2743,-0.2649,-0.2441,-0.2256,-0.2066,-0.1966,-0.2103,-0.2011,-0.2034,-0.2102,-0.2154,-0.208,-0.2351,-0.2016,-0.202,-0.2023,-0.2026,-0.2027,-0.2827,-0.2735,-0.268,-0.2612,-0.2605,-0.2568,-0.2496,-0.2532,-0.2465,-0.2368,-0.2394,-0.2238,-0.2146,-0.189,-0.1777,-0.1638,-0.1728,-0.1631,-0.1693,-0.1748,-0.1749,-0.1912,-0.1524,-0.1525,-0.1526,-0.1527,-0.1528,0,-0.254,-0.2475,-0.24,-0.232,-0.2261,-0.2334,-0.2296,-0.2221,-0.2091,-0.2068,-0.1964,-0.1872,-0.1693,-0.1639,-0.1498,-0.1397,-0.1407,-0.1365,-0.149,-0.1465,-0.158,-0.1642,-0.1255,-0.1255,-0.1255,-0.1255,-0.1255,-0.1255,-0.2381,-0.22,-0.2176,-0.1994,-0.1973,-0.1833,-0.178,-0.17,-0.1661,-0.1518,-0.1489,-0.1516,-0.1506,-0.1582,-0.1449,-0.1357,-0.1364,-0.1282,-0.1304,-0.1479,-0.1513,-0.1545,-0.1617,-0.1231,-0.1231,-0.1163,-0.1163,-0.1162]},{"header":{"parameterUnit":"m.s-1","parameterCategory":2,"la1":30.2991,"la2":30.254,"lo1":-89.0895,"lo2":-89.0444,"dy":0.0017,"dx":0.0017,"nx":28,"ny":28,"refTime":"2024-04-30T21:00:00:Z","depth":"0","parameterNumber":3,"parameterNumberName":"V-component_of_CURRENTS"},"data":[0,0,0,0,0,0,0,0,0,0,0,0,0,0,0,0,0,0,0,0,0,0,0,0,0,0,0,0,0,0,0,0,0,0,0,0,0,0,0,0,0,0,0,0,0,0,0,0,0,0,0,0,0,0,0,0,0,0,-0.1357,-0.1354,0,-0.1132,-0.1129,-0.1127,-0.1032,-0.1033,-0.1033,-0.1033,-0.0826,-0.0821,-0.0815,0,0,0,0,0,0,0,0,0,0,0,0,0,-0.1509,-0.1508,-0.1357,-0.1354,-0.1351,-0.1132,-0.1129,-0.1126,-0.1032,-0.1033,-0.1033,-0.1033,-0.0828,-0.0821,-0.0814,0,0,0,0,0,0,0,0,0,0,0,0,0,-0.1382,-0.1508,-0.1358,-0.1277,-0.1267,-0.1133,-0.1129,-0.1126,-0.1032,-0.1033,-0.1033,-0.1034,-0.083,-0.0822,-0.0813,-0.0752,0,0,-0.0787,-0.0783,0,0,0,0,0,0,0,0,-0.1389,-0.1377,-0.1291,-0.1282,-0.1271,-0.1109,-0.1106,-0.1001,-0.1032,-0.1123,-0.1033,-0.1034,-0.0921,-0.0905,-0.0864,-0.0742,-0.0733,-0.0786,-0.0781,-0.0777,-0.0775,0,0,0,0,0,0,0,-0.1398,-0.1384,-0.127,-0.1288,-0.1276,-0.1184,-0.1168,-0.1085,-0.1024,-0.1115,-0.1108,-0.1079,-0.0916,-0.0873,-0.0858,-0.073,-0.0787,-0.0779,-0.0774,-0.077,-0.0539,-0.0538,0,0,0,0,0,0,-0.1432,-0.1394,-0.1277,-0.1263,-0.133,-0.1181,-0.1164,-0.1162,-0.1025,-0.1003,-0.1079,-0.1076,-0.0887,-0.0869,-0.0851,-0.0774,-0.0777,-0.0769,-0.0764,-0.054,-0.0539,-0.0538,0,0,0,0,0,0,-0.1437,-0.1425,-0.1286,-0.132,-0.1296,-0.118,-0.1177,-0.1157,-0.1111,-0.0997,-0.0976,-0.1054,-0.0887,-0.0863,-0.077,-0.0765,-0.0765,-0.0758,-0.0541,-0.054,-0.0538,-0.0617,0,0,0,0,0,0,-0.1443,-0.1429,-0.1431,-0.1324,-0.1295,-0.1193,-0.1176,-0.1153,-0.1093,-0.1086,-0.0968,-0.0949,-0.0885,-0.0783,-0.0761,-0.0753,-0.0751,-0.0542,-0.054,-0.0539,-0.0616,-0.0619,-0.0621,0,0,0,0,0,-0.145,-0.1438,-0.1433,-0.1418,-0.1306,-0.1191,-0.1167,-0.1086,-0.1092,-0.1052,-0.0987,-0.0953,-0.0757,-0.0775,-0.0749,-0.0739,-0.0543,-0.0541,-0.0539,-0.0615,-0.0618,-0.0621,0,0,0,0,0,0,-0.1485,-0.1424,-0.1417,-0.1385,-0.1296,-0.1174,-0.1121,-0.1091,-0.1007,-0.1007,-0.0928,-0.0902,-0.0821,-0.0764,-0.0786,-0.0667,-0.0649,-0.0641,-0.0715,-0.0718,-0.072,-0.0744,-0.0744,0,0,0,0,0,-0.1504,-0.1491,-0.1403,-0.1372,-0.1331,-0.1237,-0.1183,-0.1134,-0.1048,-0.1012,-0.0933,-0.0857,-0.079,-0.0744,-0.0661,-0.0589,-0.0516,-0.0568,-0.0571,-0.0574,-0.0575,-0.0474,-0.0468,-0.0531,-0.0531,-0.0531,0,0,-0.1508,-0.147,-0.1462,-0.138,-0.1305,-0.1234,-0.1204,-0.1117,-0.1068,-0.1002,-0.091,-0.0854,-0.0771,-0.0692,-0.0652,-0.0646,-0.0509,-0.0571,-0.0575,-0.0574,-0.0471,-0.0465,-0.046,-0.0529,-0.0529,-0.053,0,0,-0.1482,-0.1475,-0.1445,-0.1379,-0.1278,-0.1222,-0.1207,-0.1092,-0.105,-0.0959,-0.0918,-0.0871,-0.0731,-0.0692,-0.0655,-0.0623,-0.0526,-0.0588,-0.0619,-0.0522,-0.0517,-0.0511,-0.0383,-0.0365,-0.0592,-0.0592,-0.0593,0,-0.1471,-0.1451,-0.1407,-0.1346,-0.1296,-0.1228,-0.117,-0.1107,-0.0981,-0.0952,-0.0934,-0.079,-0.0739,-0.0678,-0.0677,-0.0633,-0.0537,-0.0621,-0.0528,-0.0521,-0.0514,-0.0383,-0.0363,-0.0596,-0.0596,-0.0595,-0.0595,0,-0.1412,-0.1398,-0.1361,-0.1292,-0.1232,-0.1164,-0.1087,-0.1033,-0.0996,-0.0941,-0.0864,-0.0797,-0.0722,-0.0707,-0.0683,-0.0618,-0.055,-0.0545,-0.0529,-0.0513,-0.0375,-0.0352,-0.0601,-0.06,-0.0599,-0.0598,0,0,-0.1379,-0.1332,-0.1321,-0.1307,-0.1209,-0.1152,-0.1087,-0.1007,-0.0979,-0.0888,-0.0838,-0.0775,-0.0759,-0.0719,-0.069,-0.0628,-0.0514,-0.0571,-0.0564,-0.0458,-0.0247,-0.0172,-0.0139,-0.0477,-0.0474,-0.0472,-0.0162,0,-0.1336,-0.1266,-0.1249,-0.1191,-0.1153,-0.1102,-0.1055,-0.0987,-0.0926,-0.0854,-0.0816,-0.0749,-0.0756,-0.0733,-0.0675,-0.0552,-0.0459,-0.0595,-0.0265,-0.0255,-0.0204,-0.0114,-0.0095,0.0185,-0.014,-0.0136,-0.0133,0,-0.1289,-0.1257,-0.1204,-0.1186,-0.1162,-0.1122,-0.1058,-0.1006,-0.0915,-0.087,-0.0813,-0.0753,-0.0676,-0.068,-0.0459,-0.0531,-0.0395,-0.0299,-0.0284,-0.0174,-0.0139,0.0115,0.024,0.037,-0.0097,-0.01,-0.0102,0,-0.1306,-0.1241,-0.1218,-0.1194,-0.1139,-0.1123,-0.1093,-0.1015,-0.0976,-0.088,-0.0821,-0.0722,-0.0642,-0.0491,-0.0311,-0.0359,-0.0027,-0.0067,0.0143,0.0151,0.0251,0.0262,0.0523,0.0119,0.0119,0.0118,0.0117,0,-0.13,-0.1286,-0.1232,-0.1216,-0.1197,-0.1153,-0.1124,-0.1077,-0.1,-0.0927,-0.0844,-0.0741,-0.0584,-0.0384,-0.025,0.0041,0.0038,0.0174,0.0242,0.0228,0.0234,0.0415,0.0446,0.0129,0.0127,0.0125,0.0123,0,-0.1356,-0.1314,-0.1288,-0.1229,-0.1214,-0.1205,-0.1156,-0.1124,-0.1046,-0.0938,-0.0901,-0.0709,-0.0442,-0.0249,0.0042,0.0153,0.0503,0.0495,0.0483,0.0541,0.0802,0.0826,0.119,0.1301,0.0772,0.0776,0.0779,0,-0.1388,-0.1372,-0.1304,-0.1288,-0.1272,-0.1248,-0.1224,-0.1161,-0.1105,-0.0899,-0.0829,-0.0555,-0.033,0.0125,0.036,0.067,0.0734,0.087,0.0745,0.0862,0.0939,0.0949,0.1015,0.0872,0.0875,0.0878,0.0881,0,-0.1438,-0.1402,-0.1376,-0.1335,-0.131,-0.1281,-0.1231,-0.1185,-0.1066,-0.0933,-0.0681,-0.0483,-0.0042,0.0318,0.0699,0.0852,0.0968,0.0941,0.1073,0.1059,0.1083,0.1205,0.0639,0.0908,0.0905,0.0903,0.0902,0.09,-0.1464,-0.1452,-0.1395,-0.1366,-0.134,-0.1285,-0.124,-0.1142,-0.1014,-0.0764,-0.0584,-0.0258,0.0228,0.0759,0.0963,0.1309,0.1246,0.1363,0.1399,0.1412,0.1467,0.0973,0.1291,0.129,0.129,0.129,0.1289,0,-0.1472,-0.1439,-0.1421,-0.1369,-0.1348,-0.132,-0.1214,-0.1127,-0.0935,-0.069,-0.0427,0.0112,0.0606,0.1013,0.1515,0.1725,0.1752,0.1811,0.181,0.1866,0.1456,0.1402,0.1745,0.1745,0.1745,0.1745,0.1745,0.1745,-0.146,-0.1425,-0.1407,-0.1368,-0.1342,-0.1259,-0.1182,-0.1019,-0.0831,-0.0436,-0.0127,0.0129,0.0686,0.1549,0.2027,0.2074,0.2245,0.2243,0.2357,0.2015,0.1973,0.1934,0.1892,0.2332,0.2333,0.2739,0.2742,0.2745]}],[{"header":{"parameterUnit":"m.s-1","parameterCategory":2,"la1":30.2991,"la2":30.254,"lo1":-89.0895,"lo2":-89.0444,"dy":0.0017,"dx":0.0017,"nx":28,"ny":28,"refTime":"2024-04-30T21:00:00:Z","depth":"2","parameterNumber":2,"parameterNumberName":"U-component_of_CURRENTS"},"data":[0,0,0,0,0,0,0,0,0,0,0,0,0,0,0,0,0,0,0,0,0,0,0,0,0,0,0,0,0,0,0,0,0,0,0,0,0,0,0,0,0,0,0,0,0,0,0,0,0,0,0,0,0,0,0,0,0,0,-0.2204,-0.2205,0,-0.2225,-0.2225,-0.2225,-0.2104,-0.2102,-0.2099,-0.2096,-0.2013,-0.2013,-0.2014,0,0,0,0,0,0,0,0,0,0,0,0,0,-0.1998,-0.2002,-0.2204,-0.2205,-0.2206,-0.2225,-0.2225,-0.2224,-0.2105,-0.2102,-0.2098,-0.2095,-0.2013,-0.2013,-0.2014,0,0,0,0,0,0,0,0,0,0,0,0,0,-0.2053,-0.2003,-0.2203,-0.2154,-0.215,-0.2226,-0.2225,-0.2224,-0.2106,-0.2101,-0.2097,-0.2094,-0.2013,-0.2013,-0.2014,-0.2098,0,0,-0.2015,-0.2015,0,0,0,0,0,0,0,0,-0.205,-0.206,-0.216,-0.2158,-0.2154,-0.2165,-0.2122,-0.218,-0.2107,-0.2114,-0.2096,-0.2092,-0.2062,-0.2059,-0.2062,-0.2095,-0.2091,-0.2015,-0.2016,-0.2016,-0.2016,0,0,0,0,0,0,0,-0.2046,-0.2058,-0.2204,-0.2162,-0.2158,-0.2111,-0.2114,-0.2132,-0.2103,-0.2113,-0.2107,-0.2123,-0.2058,-0.2062,-0.2059,-0.209,-0.2015,-0.2016,-0.2016,-0.2016,-0.2089,-0.2091,0,0,0,0,0,0,-0.2069,-0.2056,-0.2204,-0.2206,-0.21,-0.2119,-0.2121,-0.2159,-0.2105,-0.2096,-0.2126,-0.2117,-0.2063,-0.2058,-0.2055,-0.2085,-0.2016,-0.2016,-0.2016,-0.2088,-0.209,-0.2091,0,0,0,0,0,0,-0.2064,-0.2083,-0.2203,-0.2135,-0.2148,-0.2128,-0.217,-0.2162,-0.2169,-0.2117,-0.2103,-0.2142,-0.206,-0.2055,-0.2078,-0.2083,-0.2016,-0.2017,-0.2086,-0.2088,-0.209,-0.2188,0,0,0,0,0,0,-0.2059,-0.2081,-0.2105,-0.2138,-0.2153,-0.2254,-0.2175,-0.2165,-0.2189,-0.2177,-0.2128,-0.2115,-0.2056,-0.2078,-0.2078,-0.2082,-0.2017,-0.2083,-0.2087,-0.209,-0.2182,-0.2193,-0.2202,0,0,0,0,0,-0.2052,-0.2117,-0.2107,-0.2124,-0.2191,-0.2258,-0.2261,-0.2224,-0.2194,-0.2212,-0.2178,-0.2116,-0.2095,-0.2082,-0.2081,-0.2085,-0.2082,-0.2086,-0.2089,-0.2178,-0.2191,-0.2202,0,0,0,0,0,0,-0.2087,-0.2113,-0.2101,-0.2183,-0.2217,-0.224,-0.2264,-0.2254,-0.2248,-0.2229,-0.2168,-0.2156,-0.2168,-0.2136,-0.2122,-0.2114,-0.2068,-0.2072,-0.2135,-0.2148,-0.2157,-0.2125,-0.2018,0,0,0,0,0,-0.2102,-0.2127,-0.2169,-0.2239,-0.2258,-0.2268,-0.2289,-0.2276,-0.2284,-0.2275,-0.2236,-0.22,-0.219,-0.2176,-0.2159,-0.2188,-0.2138,-0.2181,-0.2191,-0.22,-0.2174,-0.2144,-0.2148,-0.2104,-0.2103,-0.2103,0,0,-0.2128,-0.216,-0.2169,-0.2242,-0.2262,-0.2287,-0.2269,-0.2322,-0.2325,-0.2274,-0.2262,-0.2249,-0.2211,-0.2214,-0.2214,-0.2183,-0.2191,-0.2204,-0.2212,-0.218,-0.2148,-0.2152,-0.2156,-0.2106,-0.2106,-0.2105,0,0,-0.219,-0.2237,-0.2251,-0.227,-0.2314,-0.2334,-0.2359,-0.2383,-0.237,-0.2405,-0.2342,-0.2339,-0.2337,-0.2283,-0.2266,-0.2336,-0.2255,-0.2329,-0.2343,-0.2317,-0.2319,-0.2321,-0.2278,-0.2275,-0.2322,-0.2322,-0.2322,0,-0.2214,-0.2249,-0.2277,-0.2293,-0.2307,-0.2357,-0.2375,-0.2397,-0.2415,-0.2407,-0.2407,-0.2381,-0.236,-0.2335,-0.2344,-0.2354,-0.232,-0.2302,-0.2328,-0.2328,-0.2328,-0.2283,-0.2279,-0.2327,-0.2327,-0.2326,-0.2326,0,-0.2249,-0.2273,-0.2307,-0.2317,-0.2349,-0.2395,-0.2422,-0.2436,-0.2455,-0.2461,-0.2467,-0.2456,-0.2423,-0.2427,-0.2411,-0.2391,-0.2362,-0.2355,-0.2294,-0.2338,-0.2289,-0.2282,-0.2335,-0.2333,-0.2331,-0.233,0,0,-0.2284,-0.2314,-0.2318,-0.2303,-0.2356,-0.239,-0.2414,-0.2445,-0.2446,-0.2476,-0.2466,-0.2477,-0.2474,-0.2453,-0.243,-0.2406,-0.24,-0.2382,-0.2378,-0.2331,-0.2327,-0.2257,-0.2242,-0.24,-0.2399,-0.2399,-0.2298,0,-0.229,-0.2313,-0.2332,-0.2349,-0.2349,-0.2379,-0.2393,-0.2419,-0.2461,-0.2466,-0.2473,-0.2476,-0.2487,-0.2476,-0.2465,-0.2411,-0.2383,-0.2426,-0.2294,-0.2289,-0.2216,-0.2232,-0.2084,-0.1977,-0.229,-0.2289,-0.2288,0,-0.2263,-0.2288,-0.2299,-0.2312,-0.232,-0.2342,-0.2361,-0.2387,-0.2415,-0.2436,-0.2453,-0.247,-0.2447,-0.246,-0.2392,-0.242,-0.2376,-0.234,-0.2335,-0.2219,-0.2206,-0.198,-0.1952,-0.2276,-0.2277,-0.2278,-0.2279,0,-0.2202,-0.2245,-0.2256,-0.2256,-0.2295,-0.2295,-0.2333,-0.2365,-0.237,-0.2415,-0.2417,-0.2431,-0.2411,-0.2385,-0.2344,-0.2363,-0.2258,-0.2273,-0.2163,-0.2157,-0.1974,-0.1953,-0.2212,-0.2212,-0.2212,-0.2213,-0.2213,0,-0.2148,-0.2148,-0.2225,-0.2215,-0.2215,-0.226,-0.2272,-0.2296,-0.2328,-0.232,-0.2399,-0.2367,-0.2391,-0.2352,-0.2325,-0.2217,-0.2245,-0.2145,-0.2121,-0.2007,-0.1991,-0.2202,-0.2202,-0.2209,-0.221,-0.221,-0.2211,0,-0.2025,-0.2088,-0.2081,-0.2147,-0.2169,-0.2158,-0.2217,-0.2218,-0.227,-0.2253,-0.2259,-0.2293,-0.2247,-0.2258,-0.2191,-0.2159,-0.2085,-0.2037,-0.1898,-0.186,-0.2005,-0.2012,-0.1895,-0.1892,-0.1889,-0.1887,-0.1885,0,-0.1951,-0.1945,-0.2012,-0.2015,-0.2041,-0.2065,-0.2073,-0.2154,-0.2152,-0.2181,-0.2139,-0.2134,-0.2091,-0.2001,-0.1951,-0.1884,-0.1973,-0.1703,-0.1714,-0.1981,-0.197,-0.1982,-0.1992,-0.1513,-0.1508,-0.1504,-0.1501,0,-0.1807,-0.1845,-0.1856,-0.1866,-0.1883,-0.1899,-0.1927,-0.1917,-0.1988,-0.1973,-0.1932,-0.1914,-0.1861,-0.1735,-0.1682,-0.1624,-0.1715,-0.1617,-0.1906,-0.163,-0.1616,-0.1608,-0.1631,-0.1465,-0.1469,-0.1471,-0.1473,-0.1475,-0.1699,-0.1668,-0.1701,-0.169,-0.1716,-0.1707,-0.167,-0.1705,-0.1674,-0.1624,-0.1691,-0.1612,-0.1627,-0.1456,-0.1389,-0.1342,-0.1456,-0.1399,-0.1413,-0.1431,-0.1419,-0.1401,-0.1207,-0.1209,-0.1211,-0.1212,-0.1214,0,-0.1537,-0.1538,-0.1529,-0.1515,-0.1477,-0.1549,-0.1538,-0.1476,-0.1394,-0.1396,-0.1355,-0.121,-0.1146,-0.1177,-0.1048,-0.103,-0.1036,-0.0992,-0.1009,-0.1044,-0.1075,-0.1048,-0.0735,-0.0734,-0.0733,-0.0732,0,0,-0.1456,-0.1395,-0.1392,-0.128,-0.1277,-0.1184,-0.1153,-0.1088,-0.1057,-0.0951,-0.0912,-0.1021,-0.1095,-0.0902,-0.0875,-0.0784,-0.09,-0.0737,-0.1114,-0.1165,-0.1195,-0.1297,-0.1291,0,0,0,0,0]},{"header":{"parameterUnit":"m.s-1","parameterCategory":2,"la1":30.2991,"la2":30.254,"lo1":-89.0895,"lo2":-89.0444,"dy":0.0017,"dx":0.0017,"nx":28,"ny":28,"refTime":"2024-04-30T21:00:00:Z","depth":"2","parameterNumber":3,"parameterNumberName":"V-component_of_CURRENTS"},"data":[0,0,0,0,0,0,0,0,0,0,0,0,0,0,0,0,0,0,0,0,0,0,0,0,0,0,0,0,0,0,0,0,0,0,0,0,0,0,0,0,0,0,0,0,0,0,0,0,0,0,0,0,0,0,0,0,0,0,-0.0294,-0.0293,0,-0.0234,-0.0233,-0.0233,-0.019,-0.019,-0.019,-0.0189,-0.0075,-0.0072,-0.0069,0,0,0,0,0,0,0,0,0,0,0,0,0,-0.0276,-0.0277,-0.0294,-0.0293,-0.0293,-0.0234,-0.0233,-0.0232,-0.019,-0.019,-0.0189,-0.0189,-0.0076,-0.0072,-0.0069,0,0,0,0,0,0,0,0,0,0,0,0,0,-0.0257,-0.0278,-0.0294,-0.0265,-0.0261,-0.0234,-0.0233,-0.0232,-0.019,-0.019,-0.0189,-0.0189,-0.0077,-0.0073,-0.0069,-0.0053,0,0,-0.0056,-0.0054,0,0,0,0,0,0,0,0,-0.0258,-0.0258,-0.027,-0.0267,-0.0263,-0.0219,-0.0185,-0.017,-0.019,-0.0217,-0.0189,-0.0189,-0.0118,-0.0111,-0.0101,-0.0048,-0.0043,-0.0056,-0.0053,-0.0051,-0.005,0,0,0,0,0,0,0,-0.026,-0.0259,-0.027,-0.0269,-0.0265,-0.0221,-0.0219,-0.0182,-0.017,-0.0215,-0.0212,-0.0205,-0.0116,-0.0106,-0.0098,-0.0041,-0.0056,-0.0052,-0.005,-0.0048,0.0069,0.007,0,0,0,0,0,0,-0.0273,-0.0262,-0.0272,-0.0268,-0.0259,-0.0222,-0.022,-0.0234,-0.0172,-0.0162,-0.0206,-0.0203,-0.0113,-0.0103,-0.0094,-0.0046,-0.0052,-0.0048,-0.0045,0.0068,0.0069,0.007,0,0,0,0,0,0,-0.0273,-0.0276,-0.0275,-0.0262,-0.0259,-0.0224,-0.0239,-0.0233,-0.0222,-0.0165,-0.0155,-0.0202,-0.0112,-0.01,-0.0057,-0.0042,-0.0046,-0.0042,0.0068,0.0069,0.007,0.0034,0,0,0,0,0,0,-0.0274,-0.0277,-0.029,-0.0264,-0.026,-0.0261,-0.024,-0.0232,-0.0218,-0.0215,-0.0158,-0.0147,-0.0111,-0.0063,-0.0053,-0.0036,-0.0039,0.0067,0.0068,0.0069,0.0035,0.0034,0.0033,0,0,0,0,0,-0.0273,-0.0306,-0.0291,-0.0292,-0.0281,-0.0261,-0.0255,-0.0227,-0.0219,-0.0216,-0.0174,-0.0149,-0.0048,-0.006,-0.0047,-0.0029,0.0066,0.0068,0.0069,0.0035,0.0034,0.0033,0,0,0,0,0,0,-0.0321,-0.0303,-0.0287,-0.0317,-0.0287,-0.0254,-0.0256,-0.0233,-0.0199,-0.0198,-0.0144,-0.013,-0.0084,-0.0054,-0.0069,0.0009,0.0015,0.0019,-0.0015,-0.0015,-0.0016,-0.0034,-0.0035,0,0,0,0,0,-0.0334,-0.0345,-0.0314,-0.0336,-0.0326,-0.0289,-0.0278,-0.0258,-0.0225,-0.0211,-0.0168,-0.0119,-0.0069,-0.0043,0.0001,0.0039,0.0067,0.006,0.0059,0.0059,0.0053,0.0103,0.0106,0.0075,0.0075,0.0075,0,0,-0.0358,-0.035,-0.0357,-0.0343,-0.0323,-0.031,-0.0282,-0.0274,-0.0253,-0.0203,-0.0168,-0.0122,-0.006,-0.0014,0.001,0.0013,0.0085,0.006,0.0059,0.0054,0.0105,0.0108,0.011,0.0076,0.0075,0.0075,0,0,-0.0405,-0.0405,-0.042,-0.0395,-0.0365,-0.0337,-0.0336,-0.0298,-0.0273,-0.0235,-0.0186,-0.0136,-0.007,-0.0016,0.0019,0.004,0.0078,0.0057,0.0042,0.0091,0.0093,0.0096,0.014,0.0147,0.0058,0.0058,0.0058,0,-0.0437,-0.0446,-0.042,-0.0417,-0.0399,-0.0352,-0.035,-0.0317,-0.0265,-0.0241,-0.0231,-0.012,-0.0069,0.0003,0.0014,0.0039,0.0068,0.0038,0.0088,0.0091,0.0095,0.0139,0.0147,0.0057,0.0057,0.0057,0.0057,0,-0.0472,-0.0476,-0.0485,-0.046,-0.0438,-0.0432,-0.0378,-0.0351,-0.0317,-0.0276,-0.0209,-0.0139,-0.0075,-0.0041,-0.0006,0.0053,0.0066,0.0079,0.0085,0.0095,0.0142,0.0151,0.0055,0.0055,0.0056,0.0056,0,0,-0.0558,-0.0518,-0.0522,-0.0505,-0.0457,-0.0446,-0.041,-0.036,-0.0337,-0.0276,-0.0238,-0.0142,-0.011,-0.0068,-0.001,0.004,0.0095,0.0064,0.0068,0.0098,0.0199,0.0218,0.0229,0.0113,0.0115,0.0116,0.0223,0,-0.0592,-0.0592,-0.0561,-0.0552,-0.0541,-0.0482,-0.0451,-0.0398,-0.0348,-0.03,-0.0216,-0.0162,-0.0117,-0.0087,-0.003,0.0067,0.0116,0.0065,0.0193,0.0196,0.0204,0.024,0.0201,0.0295,0.0232,0.0234,0.0235,0,-0.0633,-0.0621,-0.0621,-0.0578,-0.0571,-0.0559,-0.0501,-0.0468,-0.0384,-0.0345,-0.0279,-0.0218,-0.0122,-0.0098,0.0059,0.0022,0.0101,0.0172,0.0178,0.0211,0.0232,0.0275,0.0313,0.025,0.0249,0.0248,0.0247,0,-0.0687,-0.0667,-0.0665,-0.0649,-0.0595,-0.0585,-0.0559,-0.0487,-0.0457,-0.0379,-0.0351,-0.024,-0.0178,-0.0069,0.0077,0.0067,0.0244,0.0249,0.0341,0.0344,0.0345,0.0345,0.0347,0.0347,0.0347,0.0347,0.0346,0,-0.0725,-0.0728,-0.0692,-0.0689,-0.0687,-0.0636,-0.0625,-0.0579,-0.0516,-0.0477,-0.0387,-0.033,-0.0169,-0.0048,0.007,0.024,0.024,0.0347,0.0377,0.0332,0.033,0.0314,0.0309,0.0351,0.035,0.0349,0.0348,0,-0.0776,-0.0755,-0.0752,-0.0716,-0.0712,-0.0712,-0.0678,-0.0662,-0.0598,-0.0546,-0.0525,-0.0384,-0.0224,-0.0059,0.0138,0.0236,0.0389,0.0445,0.0382,0.0402,0.0456,0.0448,0.0557,0.0558,0.056,0.0561,0.0562,0,-0.0792,-0.0799,-0.0787,-0.0792,-0.0781,-0.0775,-0.077,-0.0714,-0.0685,-0.0572,-0.0543,-0.039,-0.0265,0.0027,0.0228,0.0441,0.0439,0.0519,0.0495,0.0462,0.048,0.0469,0.0459,0.0488,0.0488,0.0488,0.0488,0,-0.082,-0.0827,-0.0825,-0.0839,-0.0847,-0.0844,-0.0826,-0.0811,-0.0729,-0.0671,-0.0555,-0.0456,-0.0182,0.005,0.0318,0.0429,0.048,0.0531,0.053,0.0433,0.0403,0.0418,0.041,0.049,0.049,0.049,0.049,0.049,-0.0844,-0.0857,-0.0864,-0.0875,-0.089,-0.0886,-0.0868,-0.0828,-0.0775,-0.0649,-0.0574,-0.0408,-0.0194,0.0183,0.0379,0.055,0.0539,0.0572,0.0568,0.0565,0.0531,0.0504,0.0604,0.0604,0.0604,0.0605,0.0605,0,-0.0846,-0.0869,-0.0892,-0.0901,-0.0916,-0.0915,-0.088,-0.0828,-0.0748,-0.0647,-0.0529,-0.0294,-0.0058,0.0167,0.0447,0.0611,0.059,0.0624,0.0566,0.0562,0.0559,0.0522,0.0595,0.0596,0.0596,0.0597,0,0,-0.0848,-0.0871,-0.0883,-0.0908,-0.0921,-0.0904,-0.0873,-0.0784,-0.0689,-0.0543,-0.0435,-0.0319,-0.0061,0.0139,0.0339,0.0485,0.0481,0.0489,0.0474,0.0377,0.0373,0.05,0.0436,0,0,0,0,0]}],[{"header":{"parameterUnit":"m.s-1","parameterCategory":2,"la1":30.2991,"la2":30.254,"lo1":-89.0895,"lo2":-89.0444,"dy":0.0017,"dx":0.0017,"nx":28,"ny":28,"refTime":"2024-04-30T21:00:00:Z","depth":"4","parameterNumber":2,"parameterNumberName":"U-component_of_CURRENTS"},"data":[0,0,0,0,0,0,0,0,0,0,0,0,0,0,0,0,0,0,0,0,0,0,0,0,0,0,0,0,0,0,0,0,0,0,0,0,0,0,0,0,0,0,0,0,0,0,0,0,0,0,0,0,0,0,0,0,0,0,-0.1082,-0.1082,0,-0.1153,-0.1154,-0.1154,-0.1187,-0.1187,-0.1187,-0.1187,-0.1267,-0.1269,-0.1271,0,0,0,0,0,0,0,0,0,0,0,0,0,-0.1032,-0.1032,-0.1082,-0.1083,-0.1083,-0.1153,-0.1154,-0.1155,-0.1187,-0.1187,-0.1187,-0.1187,-0.1266,-0.1268,-0.1271,0,0,0,0,0,0,0,0,0,0,0,0,0,-0.1073,-0.1032,-0.1081,-0.1108,-0.1111,-0.1152,-0.1154,-0.1155,-0.1187,-0.1187,-0.1187,-0.1187,-0.1265,-0.1268,-0.1271,-0.1294,0,0,-0.1281,-0.1283,0,0,0,0,0,0,0,0,-0.1071,-0.1075,-0.1103,-0.1106,-0.111,-0.1161,-0.1165,-0.1202,-0.1187,-0.1158,-0.1187,-0.1187,-0.1232,-0.1238,-0.1252,-0.1298,-0.1301,-0.1282,-0.1284,-0.1285,-0.1286,0,0,0,0,0,0,0,-0.1068,-0.1072,-0.111,-0.1104,-0.1108,-0.1136,-0.1141,-0.1173,-0.1195,-0.1161,-0.1163,-0.1171,-0.1234,-0.1248,-0.1254,-0.1302,-0.1282,-0.1285,-0.1287,-0.1288,-0.1422,-0.1424,0,0,0,0,0,0,-0.1056,-0.1069,-0.1108,-0.1112,-0.1089,-0.1137,-0.1143,-0.1145,-0.1195,-0.1202,-0.1171,-0.1172,-0.1243,-0.125,-0.1257,-0.1342,-0.1285,-0.1288,-0.129,-0.1421,-0.1423,-0.1424,0,0,0,0,0,0,-0.1055,-0.1058,-0.1105,-0.1093,-0.1101,-0.1137,-0.114,-0.1146,-0.1185,-0.1202,-0.121,-0.1206,-0.1243,-0.1252,-0.1308,-0.1343,-0.129,-0.1293,-0.1419,-0.1421,-0.1424,-0.1478,0,0,0,0,0,0,-0.1053,-0.1057,-0.1071,-0.1092,-0.1101,-0.1159,-0.114,-0.1148,-0.1188,-0.1191,-0.1234,-0.124,-0.1244,-0.1303,-0.1311,-0.1347,-0.1295,-0.1417,-0.142,-0.1423,-0.1474,-0.1481,-0.1488,0,0,0,0,0,-0.1051,-0.1069,-0.1071,-0.1077,-0.1113,-0.1161,-0.117,-0.1195,-0.119,-0.1226,-0.1244,-0.124,-0.1327,-0.1307,-0.1316,-0.1354,-0.1415,-0.1419,-0.1423,-0.147,-0.148,-0.1488,0,0,0,0,0,0,-0.1068,-0.1074,-0.1077,-0.11,-0.114,-0.1167,-0.1202,-0.1211,-0.1254,-0.1259,-0.1266,-0.1274,-0.1334,-0.1339,-0.1316,-0.1401,-0.1369,-0.1375,-0.1403,-0.1412,-0.1419,-0.1426,-0.1298,0,0,0,0,0,-0.1073,-0.1079,-0.1106,-0.1129,-0.1153,-0.1181,-0.1207,-0.1224,-0.1255,-0.1275,-0.1307,-0.1332,-0.1353,-0.1378,-0.1406,-0.1458,-0.1439,-0.1487,-0.1494,-0.15,-0.1512,-0.1509,-0.1517,-0.1436,-0.1436,-0.1436,0,0,-0.1088,-0.109,-0.1098,-0.1133,-0.1164,-0.1206,-0.1198,-0.125,-0.1289,-0.1277,-0.1355,-0.1365,-0.1373,-0.1427,-0.1455,-0.1439,-0.151,-0.1504,-0.1509,-0.1519,-0.1514,-0.1521,-0.1528,-0.1439,-0.1438,-0.1438,0,0,-0.1115,-0.1126,-0.1144,-0.1178,-0.1224,-0.1245,-0.1265,-0.1317,-0.1351,-0.1415,-0.1406,-0.1441,-0.1497,-0.1505,-0.1511,-0.1577,-0.1547,-0.1587,-0.1635,-0.1632,-0.1638,-0.1643,-0.1613,-0.1615,-0.1592,-0.1592,-0.1592,0,-0.1136,-0.1153,-0.1166,-0.1199,-0.1233,-0.1264,-0.1311,-0.1352,-0.1417,-0.1446,-0.1452,-0.1517,-0.1531,-0.1566,-0.1591,-0.1595,-0.1576,-0.1598,-0.164,-0.1645,-0.1649,-0.1617,-0.1618,-0.1595,-0.1595,-0.1595,-0.1594,0,-0.1172,-0.1201,-0.1224,-0.1263,-0.1307,-0.1356,-0.1407,-0.1465,-0.1502,-0.1529,-0.1596,-0.1615,-0.1645,-0.1658,-0.1648,-0.1689,-0.1659,-0.1645,-0.1614,-0.166,-0.1623,-0.1624,-0.16,-0.1599,-0.1598,-0.1597,0,0,-0.1171,-0.1235,-0.1246,-0.1272,-0.1344,-0.1378,-0.1459,-0.1529,-0.1566,-0.1637,-0.1681,-0.1732,-0.1734,-0.1741,-0.1734,-0.1744,-0.1757,-0.1718,-0.1716,-0.168,-0.173,-0.1613,-0.1602,-0.1748,-0.1749,-0.175,-0.1685,0,-0.12,-0.1261,-0.1292,-0.1363,-0.1401,-0.1458,-0.1525,-0.1589,-0.164,-0.1695,-0.1723,-0.176,-0.1765,-0.1774,-0.179,-0.1762,-0.1764,-0.1774,-0.1698,-0.1695,-0.158,-0.1602,-0.1753,-0.1685,-0.1685,-0.1685,-0.1685,0,-0.1214,-0.1253,-0.1327,-0.1398,-0.1424,-0.1475,-0.1567,-0.1629,-0.1705,-0.1745,-0.1789,-0.18,-0.1832,-0.1823,-0.1816,-0.1821,-0.1791,-0.1768,-0.1764,-0.164,-0.158,-0.1634,-0.1686,-0.1686,-0.1686,-0.1686,-0.1686,0,-0.1175,-0.1267,-0.1323,-0.1352,-0.1448,-0.1499,-0.1556,-0.1643,-0.1687,-0.1765,-0.1785,-0.1831,-0.1834,-0.1833,-0.1801,-0.1809,-0.1769,-0.1763,-0.1628,-0.1618,-0.1718,-0.1713,-0.1759,-0.1759,-0.1759,-0.1759,-0.176,0,-0.1159,-0.1199,-0.1312,-0.1335,-0.1402,-0.1481,-0.1548,-0.1615,-0.1693,-0.1711,-0.1794,-0.1791,-0.1839,-0.182,-0.1802,-0.1705,-0.1765,-0.1637,-0.1599,-0.174,-0.1739,-0.1717,-0.1713,-0.1757,-0.1757,-0.1758,-0.1758,0,-0.1077,-0.1161,-0.1219,-0.1339,-0.1377,-0.142,-0.1523,-0.1555,-0.1651,-0.1673,-0.1694,-0.1755,-0.1724,-0.1744,-0.1716,-0.1671,-0.1613,-0.1565,-0.1699,-0.1669,-0.1463,-0.1463,-0.1405,-0.1401,-0.1397,-0.1394,-0.1391,0,-0.1028,-0.1057,-0.1193,-0.1228,-0.1279,-0.1357,-0.14,-0.1517,-0.1538,-0.1615,-0.1597,-0.1615,-0.1633,-0.1497,-0.1544,-0.1496,-0.1485,-0.1453,-0.1487,-0.1461,-0.143,-0.1436,-0.1441,-0.1385,-0.1384,-0.1383,-0.1382,0,-0.0927,-0.0997,-0.1052,-0.1127,-0.1183,-0.1232,-0.1297,-0.1308,-0.1412,-0.1503,-0.1455,-0.1443,-0.14,-0.1391,-0.1368,-0.1338,-0.148,-0.1413,-0.1421,-0.1453,-0.1435,-0.141,-0.1419,-0.1368,-0.137,-0.1372,-0.1372,0,-0.0852,-0.0868,-0.0955,-0.1006,-0.1071,-0.1086,-0.1145,-0.1163,-0.1206,-0.1307,-0.127,-0.1299,-0.1353,-0.1303,-0.1275,-0.1248,-0.1236,-0.1213,-0.1232,-0.1247,-0.1231,-0.1188,-0.1009,0,0,0,0,0,-0.0765,-0.0781,-0.0819,-0.0877,-0.0933,-0.0965,-0.106,-0.1123,-0.1223,-0.1146,-0.1214,-0.1169,-0.1137,-0.1159,-0.1097,-0.1212,-0.1248,-0.1136,-0.1234,-0.1294,-0.131,-0.1309,0,0,0,0,0,0,-0.0713,-0.0756,-0.0778,-0.0751,-0.0756,-0.0798,-0.0856,-0.0931,-0.091,-0.1015,-0.1,-0.1078,-0.1064,-0.1127,-0.1055,-0.1065,-0.1102,-0.1169,-0.1166,-0.1285,-0.1299,-0.1312,-0.1317,0,0,0,0,0]},{"header":{"parameterUnit":"m.s-1","parameterCategory":2,"la1":30.2991,"la2":30.254,"lo1":-89.0895,"lo2":-89.0444,"dy":0.0017,"dx":0.0017,"nx":28,"ny":28,"refTime":"2024-04-30T21:00:00:Z","depth":"4","parameterNumber":3,"parameterNumberName":"V-component_of_CURRENTS"},"data":[0,0,0,0,0,0,0,0,0,0,0,0,0,0,0,0,0,0,0,0,0,0,0,0,0,0,0,0,0,0,0,0,0,0,0,0,0,0,0,0,0,0,0,0,0,0,0,0,0,0,0,0,0,0,0,0,0,0,-0.0145,-0.0145,0,-0.0134,-0.0134,-0.0134,-0.0086,-0.0085,-0.0083,-0.0082,-0.0003,-0.0002,-0.0001,0,0,0,0,0,0,0,0,0,0,0,0,0,-0.0068,-0.007,-0.0145,-0.0145,-0.0145,-0.0134,-0.0134,-0.0134,-0.0086,-0.0084,-0.0083,-0.0082,-0.0003,-0.0002,-0.0001,0,0,0,0,0,0,0,0,0,0,0,0,0,-0.0084,-0.0071,-0.0145,-0.012,-0.0117,-0.0134,-0.0134,-0.0134,-0.0086,-0.0084,-0.0083,-0.0081,-0.0004,-0.0002,-0.0001,-0.0024,0,0,0.0004,0.0005,0,0,0,0,0,0,0,0,-0.0083,-0.0087,-0.0124,-0.0122,-0.0119,-0.011,-0.0077,-0.0094,-0.0087,-0.0098,-0.0082,-0.008,-0.0034,-0.003,-0.0032,-0.002,-0.0017,0.0004,0.0005,0.0006,0.0006,0,0,0,0,0,0,0,-0.0082,-0.0087,-0.0141,-0.0124,-0.0121,-0.0089,-0.009,-0.008,-0.0074,-0.0097,-0.0093,-0.0093,-0.0032,-0.0034,-0.003,-0.0016,0.0004,0.0006,0.0007,0.0007,0.0058,0.0059,0,0,0,0,0,0,-0.0089,-0.0086,-0.0141,-0.014,-0.0097,-0.0092,-0.0093,-0.0114,-0.0075,-0.0069,-0.0094,-0.0091,-0.0037,-0.0032,-0.0026,0.0006,0.0006,0.0008,0.0008,0.0058,0.0058,0.0059,0,0,0,0,0,0,-0.0088,-0.0095,-0.0142,-0.0111,-0.0115,-0.0096,-0.0119,-0.0115,-0.0111,-0.0074,-0.0065,-0.0094,-0.0036,-0.0029,-0.0006,0.0007,0.0008,0.001,0.0057,0.0058,0.0058,0.0034,0,0,0,0,0,0,-0.0086,-0.0095,-0.0113,-0.0113,-0.0117,-0.0148,-0.0121,-0.0116,-0.0113,-0.0108,-0.0071,-0.0063,-0.0034,-0.0008,-0.0004,0.001,0.0011,0.0057,0.0058,0.0058,0.0034,0.0033,0.0033,0,0,0,0,0,-0.0084,-0.0125,-0.0114,-0.012,-0.0143,-0.0149,-0.0148,-0.0127,-0.0115,-0.0117,-0.0086,-0.0063,0.0,-0.0007,-0.0002,0.0012,0.0057,0.0057,0.0058,0.0034,0.0033,0.0033,0,0,0,0,0,0,-0.0113,-0.0124,-0.0112,-0.0158,-0.0147,-0.014,-0.0149,-0.0134,-0.0116,-0.0111,-0.007,-0.0059,-0.003,-0.0012,-0.0021,0.0031,0.0036,0.0038,0.0016,0.0015,0.0015,0.0012,0.0012,0,0,0,0,0,-0.0126,-0.0152,-0.0147,-0.0181,-0.018,-0.0164,-0.0165,-0.0151,-0.0136,-0.0126,-0.0097,-0.0062,-0.0027,-0.0008,0.0019,0.0034,0.0052,0.0051,0.005,0.0049,0.0051,0.009,0.0093,0.0062,0.0062,0.0061,0,0,-0.0145,-0.0156,-0.017,-0.0186,-0.018,-0.0182,-0.0161,-0.017,-0.0158,-0.0122,-0.0102,-0.007,-0.0024,0.0005,0.0021,0.0025,0.0065,0.005,0.0049,0.0052,0.0091,0.0094,0.0097,0.0062,0.0062,0.0062,0,0,-0.019,-0.0207,-0.0232,-0.0226,-0.0221,-0.0209,-0.0211,-0.0201,-0.018,-0.0166,-0.0122,-0.0082,-0.005,0.0001,0.0028,0.0037,0.0058,0.0044,0.0041,0.0078,0.0081,0.0084,0.0095,0.0099,0.0046,0.0046,0.0046,0,-0.0211,-0.0241,-0.0238,-0.0251,-0.0245,-0.0221,-0.0228,-0.0211,-0.0189,-0.0168,-0.0161,-0.0084,-0.0046,0.0016,0.0027,0.0037,0.0048,0.0039,0.0077,0.008,0.0083,0.0094,0.0099,0.0045,0.0045,0.0046,0.0046,0,-0.0257,-0.0274,-0.0291,-0.0292,-0.0287,-0.0295,-0.0264,-0.0252,-0.0228,-0.0199,-0.0147,-0.0096,-0.0045,-0.0021,0.0006,0.0058,0.0053,0.0068,0.0076,0.0085,0.0096,0.0101,0.0044,0.0044,0.0045,0.0045,0,0,-0.0319,-0.0321,-0.0326,-0.0318,-0.0306,-0.0306,-0.0288,-0.0256,-0.0237,-0.0199,-0.0167,-0.009,-0.0061,-0.0028,0.0018,0.0058,0.009,0.0069,0.0071,0.0074,0.0149,0.0133,0.0137,0.0108,0.0109,0.011,0.0141,0,-0.0348,-0.0373,-0.0365,-0.0371,-0.0371,-0.0339,-0.0323,-0.0288,-0.0252,-0.0218,-0.0145,-0.0104,-0.0063,-0.0041,0.0009,0.0071,0.0106,0.0079,0.0146,0.0147,0.0128,0.0144,0.0114,0.0145,0.0147,0.0148,0.0148,0,-0.0386,-0.0393,-0.0409,-0.0391,-0.039,-0.0391,-0.0353,-0.0336,-0.0275,-0.0247,-0.0189,-0.0141,-0.0064,-0.0043,0.0067,0.0044,0.0094,0.0139,0.0141,0.0141,0.0142,0.014,0.0158,0.0157,0.0157,0.0156,0.0155,0,-0.0408,-0.0419,-0.0429,-0.0425,-0.0408,-0.0406,-0.0394,-0.0347,-0.0329,-0.0268,-0.0253,-0.0159,-0.012,-0.0037,0.0058,0.006,0.0162,0.0177,0.0209,0.0207,0.0222,0.0219,0.025,0.025,0.025,0.025,0.0249,0,-0.043,-0.0438,-0.0444,-0.0447,-0.0458,-0.0435,-0.0434,-0.0407,-0.0371,-0.0349,-0.0274,-0.024,-0.0117,-0.0042,0.0043,0.0137,0.0151,0.0211,0.0222,0.0208,0.0203,0.0224,0.0221,0.0251,0.025,0.025,0.025,0,-0.0445,-0.0451,-0.0466,-0.0466,-0.0471,-0.048,-0.0477,-0.0468,-0.0434,-0.0408,-0.0394,-0.0301,-0.0204,-0.0089,0.0044,0.011,0.0205,0.0234,0.0192,0.0199,0.0225,0.022,0.0271,0.027,0.027,0.027,0.027,0,-0.0447,-0.0458,-0.0488,-0.0507,-0.0512,-0.0523,-0.0531,-0.0506,-0.0493,-0.044,-0.0427,-0.034,-0.0266,-0.0096,0.0023,0.0171,0.0199,0.0238,0.0257,0.0225,0.0231,0.0226,0.0222,0.027,0.027,0.027,0.027,0,-0.0444,-0.0469,-0.0484,-0.0527,-0.0552,-0.0569,-0.0574,-0.057,-0.0533,-0.0514,-0.0442,-0.0347,-0.0242,-0.0102,0.0009,0.012,0.0209,0.0237,0.0238,0.0257,0.0225,0.023,0.0225,0.0269,0.027,0.027,0.027,0,-0.0444,-0.0465,-0.0499,-0.0532,-0.0574,-0.0592,-0.0594,-0.057,-0.0556,-0.0493,-0.0475,-0.0355,-0.0285,-0.013,-0.0025,0.0079,0.0112,0.0151,0.0157,0.0159,0.0123,0.0066,0.0075,0,0,0,0,0,-0.0427,-0.0453,-0.0493,-0.0534,-0.0579,-0.0594,-0.0608,-0.06,-0.0575,-0.0529,-0.0496,-0.0396,-0.0232,-0.0161,-0.0058,-0.0029,0.0124,0.0094,0.0171,0.0267,0.0268,0.0244,0,0,0,0,0,0,-0.0414,-0.0459,-0.0485,-0.0528,-0.0552,-0.059,-0.0596,-0.0582,-0.0545,-0.0512,-0.0424,-0.0376,-0.0217,-0.029,-0.0058,-0.0027,0.0035,0.017,0.0173,0.0267,0.0267,0.0268,0.0244,0,0,0,0,0]}]]